Flag for Uruguay Weather past 2 weeks in Melo, Uruguay

68 °F

Drizzle. Low clouds.

Feels Like: 68 °F
Forecast: 66 / 75 °F
Wind: 12 mph from Northeast

Location: Pelotas Airport

Current Time: Nov 27, 2015 at 5:22:27 AM

Latest Report: Nov 27, 2015 at 5:00 AM

Visibility: 1 mi

Pressure: 29.86 "Hg

Humidity: 100%

Dew point: 68 °F

Location of MeloLocation

Historic Weather in Melo — Graph


Melo temperature yesterday

Maximum temperature yesterday: 70 °F (at 9:00 AM)
Minimum temperature yesterday: 66 °F (at 2:00 AM)
Average temperature yesterday: 69 °F

Past Weeks' High & Low Weather Summary

High88 °F (Nov 13, 3:00 PM)100% (Nov 12, 5:00 AM)30.07 "Hg (Nov 12, 5:00 AM)
Low32 °F (Nov 12, 11:00 PM)23% (Nov 19, 2:00 PM)29.50 "Hg (Nov 13, 3:00 PM)
Average68 °F78%29.84 "Hg
* Reported Nov 12 3:00 AM — Nov 27 3:00 AM, Melo, Weather by CustomWeather, © 2015

Note: Actual official high and low records may vary slightly from our data, if they occured in-between our weather recording intervals... More about our weather records


Melo weather history for previous 24 hours

Time TempWeatherWind HumidityBarometerVisibility
3:00 AM
Fri, Nov 27
68 °FFog.12 mph100%29.83 "Hg2 mi
2:00 AM68 °FLight rain. Low clouds.7 mph94%29.89 "Hg2 mi
1:00 AM70 °FFog.7 mph94%29.89 "Hg2 mi
12:00 AM70 °FFog.17 mph88%29.89 "Hg2 mi
11:00 PM
Thu, Nov 26
70 °FFog.16 mph88%29.92 "Hg3 mi
10:00 PM70 °FFog.15 mph88%29.95 "Hg3 mi
9:00 PM70 °FOvercast.10 mph83%29.98 "Hg5 mi
8:00 PM68 °FOvercast.15 mph88%29.95 "Hg6 mi
7:00 PM70 °FOvercast.15 mph78%29.95 "Hg5 mi
6:00 PM70 °FOvercast.16 mph78%29.95 "Hg5 mi
5:00 PM70 °FOvercast.18 mph83%29.95 "Hg4 mi
4:00 PM70 °FOvercast.14 mph83%29.95 "Hg4 mi
3:00 PM70 °FFog.16 mph83%29.95 "Hg3 mi
2:00 PM70 °FFog.23 mph83%29.95 "Hg2 mi
1:00 PM70 °FDrizzle. More clouds than sun.20 mph83%29.95 "Hg3 mi
12:00 PM68 °FDrizzle. More clouds than sun.13 mph88%29.98 "Hg2 mi
11:00 AM70 °FDrizzle. More clouds than sun.18 mph78%29.98 "HgN/A
10:00 AM70 °FDrizzle. More clouds than sun.10 mph78%29.98 "HgN/A
9:00 AM70 °FDrizzle. More clouds than sun.16 mph78%30.01 "Hg5 mi
8:00 AM68 °FDrizzle. More clouds than sun.13 mph83%30.01 "HgN/A
7:00 AM68 °FOvercast.16 mph83%29.98 "HgN/A
6:00 AM68 °FMostly cloudy.14 mph78%29.95 "HgN/A
5:00 AM68 °FPassing clouds.13 mph78%29.95 "HgN/A
Weather by CustomWeather, © 2015

See weather overviewHow to use our weather pages